星链-1490 (STARLINK-1490 )

导读 | 星芒AI

STARLINK-1490 是 SpaceX Starlink 卫星互联网项目中的一颗低轨卫星,属于第 14 批部署的 Starlink 卫星群。该卫星于 2020 年 11 月 24 日由猎鹰 9 号火箭从肯尼迪航天中心发射升空,旨在为全球提供高速互联网服务。它运行在约 550 公里的近地轨道,配备先进通信设备,支持 Ku 和 Ka 频段传输。STARLINK-1490 与其他 Starlink 卫星协同工作,提升网络覆盖与连接稳定性,助力偏远地区实现宽带接入。

基本信息
目录编号:
45777
目录名称:
STARLINK-1490
国际标识:
2020-038AZ
轨道中心:
EARTH
卫星名称:
星链-1490
卫星全名:
星链-1490 (STARLINK-1490 )
卫星状态:
已陨落 最后检测时间 2025-01-28
发射日期:
2020-06-13 UTC
国别 :
美国 (US)
星等 :
--
轨道信息
数据来源 国际轨道数据
星历时间: 2025-01-28T21:15:27+0800
轨道信息已过期274天
半长轴: 6530.974km
偏心率: 0.0003898
轨道倾角: 52.993°
近地点辐角 177.427°
升交点赤经 92.824°
平近点角 249.525°
近地点: 150.293km
远地点: 155.385km
周期: 87.544分钟
每日圈数: 16.448863
详细信息
固有亮度:
5
最大亮度:
2.5
卫星平台:
Starlink V1.0
覆盖范围:
全球
运营商:
太空探索技术公司
运营商所在国:
美国
制造商(研发单位):
太空探索技术公司
制造商所在国:
美国
使用方式:
暂无
卫星简介
星链(Starlink)计划是由太空探索技术公司(SpaceX)提出的一个巨型低轨卫星互联网星座项目,计划在2019年至2024年间在太空搭建由约1.2万颗卫星组成的“星链”网络,其中1584颗将部署在地球上空550千米处的近地轨道,并从2020年开始工作。该卫星仍在工作。